TimeEDT,TemperatureF,Dew PointF,Humidity,Sea Level PressureIn,VisibilityMPH,Wind Direction,Wind SpeedMPH,Gust SpeedMPH,PrecipitationIn,Events,Conditions,WindDirDegrees,DateUTC
12:53 AM,82.9,75.0,77,30.12,10.0,East,3.5,-,N/A,,Clear,80,2013-08-04 04:53:00
1:53 AM,82.9,75.0,77,30.10,10.0,East,3.5,-,N/A,,Clear,90,2013-08-04 05:53:00
2:53 AM,82.9,75.0,77,30.10,10.0,Calm,Calm,-,N/A,,Scattered Clouds,0,2013-08-04 06:53:00
3:53 AM,82.9,73.9,74,30.08,10.0,ESE,5.8,-,N/A,,Partly Cloudy,110,2013-08-04 07:53:00
4:53 AM,82.9,73.9,74,30.07,10.0,SE,5.8,-,N/A,,Clear,140,2013-08-04 08:53:00
5:53 AM,82.0,73.9,76,30.08,10.0,Calm,Calm,-,N/A,,Clear,0,2013-08-04 09:53:00
6:53 AM,82.0,75.0,79,30.08,10.0,East,3.5,-,N/A,,Partly Cloudy,100,2013-08-04 10:53:00
7:53 AM,82.9,75.0,77,30.09,10.0,ESE,3.5,-,N/A,,Clear,110,2013-08-04 11:53:00
8:53 AM,84.0,73.9,72,30.11,10.0,ESE,3.5,-,N/A,,Clear,110,2013-08-04 12:53:00
9:53 AM,86.0,75.0,70,30.11,10.0,Variable,3.5,-,N/A,,Clear,0,2013-08-04 13:53:00
10:53 AM,86.0,75.0,70,30.12,10.0,SE,5.8,-,N/A,,Clear,140,2013-08-04 14:53:00
11:53 AM,86.0,75.9,72,30.11,10.0,SE,4.6,-,N/A,,Clear,130,2013-08-04 15:53:00
12:53 PM,87.1,75.9,69,30.10,10.0,ESE,5.8,-,N/A,,Clear,120,2013-08-04 16:53:00
1:53 PM,87.1,75.0,67,30.09,10.0,SSE,4.6,-,N/A,,Clear,150,2013-08-04 17:53:00
2:53 PM,87.1,73.9,65,30.07,10.0,Variable,3.5,-,N/A,,Mostly Cloudy,0,2013-08-04 18:53:00
3:19 PM,86.0,73.4,66,30.06,10.0,SW,4.6,-,N/A,,Mostly Cloudy,220,2013-08-04 19:19:00
3:53 PM,88.0,77.0,70,30.04,10.0,Calm,Calm,-,N/A,,Overcast,0,2013-08-04 19:53:00
4:53 PM,88.0,75.9,67,30.04,10.0,NW,6.9,-,N/A,,Overcast,310,2013-08-04 20:53:00
5:14 PM,87.8,75.2,66,30.04,10.0,WNW,8.1,-,N/A,,Scattered Clouds,300,2013-08-04 21:14:00
5:33 PM,89.6,77.0,66,30.03,10.0,NNW,8.1,-,N/A,,Mostly Cloudy,330,2013-08-04 21:33:00
5:53 PM,88.0,77.0,70,30.03,10.0,NNW,6.9,-,N/A,,Mostly Cloudy,340,2013-08-04 21:53:00
6:10 PM,87.8,75.2,66,30.03,10.0,NNW,6.9,-,N/A,,Partly Cloudy,340,2013-08-04 22:10:00
6:53 PM,87.1,75.0,67,30.04,10.0,NNW,5.8,-,N/A,,Clear,330,2013-08-04 22:53:00
7:53 PM,87.1,72.0,61,30.04,10.0,NNW,4.6,-,N/A,,Clear,340,2013-08-04 23:53:00
8:53 PM,86.0,73.0,65,30.06,10.0,North,5.8,-,N/A,,Clear,350,2013-08-05 00:53:00
9:53 PM,84.9,75.0,72,30.07,10.0,North,4.6,-,N/A,,Clear,360,2013-08-05 01:53:00
10:53 PM,84.0,73.9,72,30.09,10.0,Calm,Calm,-,N/A,,Clear,0,2013-08-05 02:53:00
11:53 PM,82.9,75.0,77,30.08,10.0,Calm,Calm,-,N/A,,Clear,0,2013-08-05 03:53:00